This demonstration page uses our WeatherBlox Daily Observations layout. Learn more.

Left ArrowRight Arrow

Hourly Observations for September 2, 2020

Temp ( °F °C ) Dew Point ( °F °C ) Humidity (%) Winds ( mph kmh ) Pressure ( in mb ) Visibility ( mi km ) Precip ( " mm )
12:54 am 00:54 Clear 64 17.8 61 16.1 90 90 Calm 29.83 1010 9 14.48406 0 0
1:54 am 01:54 Clear 63 17.2 60 15.6 90 90 SSW 3 6 29.85 1011 9 14.48406 0 0
2:54 am 02:54 Clear 63 17.2 60 15.6 90 90 Calm 29.86 1011 9 14.48406 0 0
3:54 am 03:54 Clear 62 16.7 59 15 90 90 WSW 3 6 29.85 1011 9 14.48406 0 0
4:54 am 04:54 Clear 60 15.6 58 14.4 93 93 Calm 29.85 1011 9 14.48406 0 0
5:54 am 05:54 Clear 57 13.9 55 12.8 93 93 N 5 7 29.86 1011 8 12.87472 0 0
6:54 am 06:54 Clear 55 12.8 53 11.7 93 93 N 3 6 29.88 1012 8 12.87472 0 0
7:54 am 07:54 Sunny with Mist and Fog 60 15.6 56 13.3 86 86 Calm 29.9 1012 6 9.65604 0 0
8:54 am 08:54 Sunny 67 19.4 58 14.4 73 73 Calm 29.92 1013 9 14.48406 0 0
9:54 am 09:54 Sunny 73 22.8 59 15 62 62 Calm 29.93 1013 9 14.48406 0 0
10:54 am 10:54 Sunny 79 26.1 54 12.2 42 42 Calm 29.93 1014 10 16.0934 0 0
11:54 am 11:54 Sunny 85 29.4 46 7.8 26 26 Calm 29.92 1013 10 16.0934 0 0
12:54 pm 12:54 Sunny 88 31.1 42 5.6 20 20 Calm 29.89 1012 10 16.0934 0 0
1:54 pm 13:54 Sunny 90 32.2 41 5 18 18 Calm 29.87 1012 10 16.0934 0 0
2:54 pm 14:54 Sunny 90 32.2 40 4.4 17 17 SSW 6 9 29.86 1011 10 16.0934 0 0
3:54 pm 15:54 Sunny 92 33.3 38 3.3 15 15 VRB 3 6 29.84 1011 10 16.0934 0 0
4:54 pm 16:54 Sunny 92 33.3 39 3.9 16 16 Calm 29.82 1010 10 16.0934 0 0
5:54 pm 17:54 Sunny 89 31.7 38 3.3 16 16 ESE 6 9 29.81 1010 10 16.0934 0 0
6:54 pm 18:54 Sunny 86 30 46 7.8 25 25 S 6 9 29.8 1009 10 16.0934 0 0
7:54 pm 19:54 Sunny 80 26.7 49 9.4 34 34 S 6 9 29.79 1009 10 16.0934 0 0
8:54 pm 20:54 Clear 74 23.3 51 10.6 45 45 SSE 3 6 29.8 1009 10 16.0934 0 0
9:54 pm 21:54 Clear 74 23.3 53 11.7 48 48 Calm 29.79 1009 10 16.0934 0 0
10:54 pm 22:54 Clear 68 20 55 12.8 63 63 SSE 6 9 29.79 1009 10 16.0934 0 0
11:54 pm 23:54 Clear 64 17.8 58 14.4 81 81 S 7 11 29.79 1009 10 16.0934 0 0

Powered by AerisWeather